CDT,Max TemperatureF,Mean TemperatureF,Min TemperatureF,Max Dew PointF,MeanDew PointF,Min DewpointF,Max Humidity, Mean Humidity, Min Humidity, Max Sea Level PressureIn, Mean Sea Level PressureIn, Min Sea Level PressureIn, Max VisibilityMiles, Mean VisibilityMiles, Min VisibilityMiles, Max Wind SpeedMPH, Mean Wind SpeedMPH, Max Gust SpeedMPH,PrecipitationIn, CloudCover, Events, WindDirDegrees
2012-9-1,80,60,41,52,45,39,100,65,30,30.24,30.17,30.06,10,9,2,14,4,21,0.00,0,,153
2012-9-2,80,66,54,63,56,49,93,69,45,30.06,29.93,29.83,10,10,10,12,7,23,0.00,1,,168
2012-9-3,84,66,48,63,53,44,100,80,24,29.92,29.88,29.84,10,5,0,7,1,,0.00,1,Fog,298
2012-9-4,84,68,51,64,55,48,100,72,39,29.90,29.81,29.72,10,9,1,13,3,21,0.00,1,,214
2012-9-5,73,60,48,57,48,44,97,67,38,29.86,29.82,29.75,10,10,10,14,4,23,0.10,2,Rain,302
2012-9-6,69,54,39,54,47,37,100,82,49,29.95,29.92,29.86,10,8,0,14,2,17,0.01,3,Fog-Rain,289
2012-9-7,61,50,42,51,46,41,100,84,58,30.02,29.97,29.92,10,7,0,23,5,29,0.02,4,Fog,339
2012-9-8,61,48,37,55,45,37,100,89,64,30.06,29.91,29.80,10,7,0,20,6,29,0.09,5,Fog-Rain,319
2012-9-9,68,54,39,50,43,38,100,87,42,30.20,30.13,30.06,10,5,0,9,3,16,0.00,1,Fog,348
2012-9-10,77,54,32,50,40,32,100,78,36,30.08,29.96,29.76,10,6,0,16,2,26,0.00,0,Fog,193
2012-9-11,77,62,48,61,52,34,93,67,34,29.84,29.74,29.67,10,10,10,22,5,29,0.00,0,,184
2012-9-12,66,56,48,40,34,28,57,40,26,30.18,30.05,29.86,10,10,10,17,9,26,0.01,0,,284
2012-9-13,68,49,32,37,32,28,92,47,24,30.35,30.27,30.17,10,10,10,21,7,28,0.00,2,,313
2012-9-14,66,47,28,43,35,28,97,69,32,30.38,30.35,30.31,10,10,2,9,2,16,0.00,0,,340
2012-9-15,75,50,26,49,34,27,100,82,32,30.31,30.19,29.92,10,6,0,10,2,17,0.00,1,Fog,170
2012-9-16,75,55,37,49,40,36,100,80,26,30.00,29.90,29.85,10,6,0,18,3,21,0.00,1,Fog-Rain,329
2012-9-17,55,44,34,38,34,30,89,64,40,30.03,30.00,29.96,10,10,10,14,8,22,0.00,4,,330
2012-9-18,57,40,24,34,26,21,93,65,29,30.06,29.99,29.86,10,9,0,9,2,,0.00,1,Fog,299
2012-9-19,61,52,45,49,41,32,87,70,55,29.82,29.66,29.56,10,10,9,18,9,29,0.08,7,Rain,267
2012-9-20,61,52,43,45,41,32,97,76,34,29.87,29.80,29.71,10,10,5,26,13,37,0.11,7,Rain,295
2012-9-21,57,44,33,41,36,32,97,84,47,29.85,29.81,29.75,10,8,2,25,9,44,0.31,6,Rain-Snow,300
2012-9-22,51,43,30,39,34,27,93,76,44,30.24,30.11,29.86,10,10,9,22,13,29,0.00,6,Rain,330
2012-9-23,55,40,25,32,28,24,96,69,37,30.30,30.23,30.10,10,10,10,16,5,21,0.00,0,,289
2012-9-24,71,49,28,42,32,26,92,54,29,30.06,29.82,29.68,10,10,10,25,6,30,0.00,0,,292
2012-9-25,55,40,26,38,31,24,100,77,43,30.03,29.97,29.88,10,9,1,9,2,,0.00,3,,328
2012-9-26,59,40,24,39,29,23,100,80,36,30.26,30.12,30.01,10,7,1,8,1,,0.00,2,,324
2012-9-27,64,44,23,40,30,21,96,72,30,30.34,30.26,30.20,10,10,2,8,1,,0.00,0,,285
2012-9-28,71,50,30,47,37,29,96,72,26,30.24,30.18,30.11,10,10,7,6,1,,0.00,0,,260
2012-9-29,75,54,32,46,38,30,96,66,25,30.18,30.12,30.07,10,9,2,7,1,,0.00,0,,25
2012-9-30,73,52,30,44,37,29,96,65,31,30.09,30.00,29.88,10,10,7,10,2,,0.00,0,,148